Regional Weather Roundup
Issued by NWS Albany, NY

Home | Current Version | Previous Version | Graphics & Text | Print | Product List | Glossary Off
Versions: 1 2 3 4 5 6 7 8 9 10 11 12 13 14 15 16 17 18 19 20 21 22 23 24 25 26 27 28 29 30 31 32 33 34 35 36 37 38 39 40 41 42 43 44 45 46 47 48 49 50

000
ASUS41 KALY 260110
RWRALY

NEW YORK STATE HOURLY WEATHER ROUNDUP
NATIONAL WEATHER SERVICE ALBANY NY
800 PM EST TUE NOV 25 2014

NOTE: "FAIR" INDICATES FEW OR NO CLOUDS BELOW 12,000 FEET WITH NO
SIGNIFICANT WEATHER AND/OR NO OBSTRUCTIONS TO VISIBILITY.

NYZ032-033-038>043-046>054-057>066-NYZ062>081-260200-
EAST


CITY           SKY/WX    TMP DP  RH WIND       PRES   REMARKS
ALBANY         MOCLDY    43  25  49 SW7       30.05R
GLENS FALLS    CLEAR     30  25  81 CALM      30.03R
POUGHKEEPSIE   MOCLDY    40  30  67 CALM      30.08R
NEWBURGH       CLEAR     43  30  61 W9        30.08
MONTGOMERY     MOCLDY    35  28  75 CALM      30.07R
WHITE PLAINS   PTCLDY    48  28  46 W6        30.06R
ISLIP          CLOUDY    48  34  58 SW6       30.08R
NEW YORK CITY  CLOUDY    53  28  38 W14       30.08R
CENTRAL PARK   MOCLDY    52  29  41 W6        30.11R
$$

NYZ005>009-017-018-044>046-055-056-260200-
CENTRAL


CITY           SKY/WX    TMP DP  RH WIND       PRES   REMARKS
FULTON         CLOUDY    38  33  82 W15       30.12R WCI  29
SYRACUSE       CLOUDY    42  31  64 NW14G21   30.11R
ROME           CLOUDY    40  29  64 NW10      30.10R WCI  33
ELMIRA         CLEAR     38  26  62 W8        30.09R WCI  32
BINGHAMTON     CLEAR     38  25  59 W9        30.05R WCI  31
MONTICELLO     CLEAR     37  25  60 W6        30.07R WCI  33
$$

NYZ026>034-041>043-260200-
NORTH


CITY           SKY/WX    TMP DP  RH WIND       PRES   REMARKS
WATERTOWN      LGT RAIN  39  28  64 W24G37    30.08R WCI  28
FORT DRUM      NOT AVBL
MASSENA        CLOUDY    39  27  62 SW20G29   30.02R WCI  29
SARANAC LAKE   CLOUDY    34  29  82 W12G23    29.95R WCI  25
PLATTSBURGH    NOT AVBL
$$

NYZ001>004-010>016-019>021-260200-
WEST


CITY           SKY/WX    TMP DP  RH WIND       PRES   REMARKS
BUFFALO        FLURRIES  34  23  64 W15G22    30.13R WCI  24
DUNKIRK        CLOUDY    37  27  67 W16G26    30.15R WCI  28
JAMESTOWN      CLOUDY    32  25  74 W10       30.12R WCI  24
WELLSVILLE     CLOUDY    36  24  62 W16       30.09R WCI  26
ROCHESTER      FLURRIES  35  30  82 W15       30.13R WCI  25
PENN YAN       CLOUDY    41  27  57 W14G20    30.09R
$$

             KEY
       WCI = WIND CHILL INDEX
       VSB = VISIBILITY
       HX  = HEAT INDEX
$$


USA.gov is the U.S. government's official web portal to all federal, state and local government web resources and services.